{"data":{"norad_id":69742,"intl_designator":"2026-150D","name":"STARLINK-38041","alt_names":[],"object_type":"PAYLOAD","status":"ACTIVE","operator":null,"country":"US","launch_date":"2026-07-02","launch_site_code":"AFWTR","launch_vehicle":null,"mission":null,"orbit_class":"UNKNOWN","rcs_meters":null,"size_class":null,"mass_kg":null,"dimensions":null,"purposes":["comms"],"wikipedia_slug":null,"has_3d_model":false,"image_url":null,"decayed_at":null,"tle_current":{"epoch":"2026-09-19T19:43:44.943744Z","epoch_age_seconds":80238,"freshness":"FRESH","line1":"1 69742U 26150D   26262.82204796  .00021450  00000+0  66468-3 0  9992","line2":"2 69742  97.2884 101.7828 0002497  91.3933 268.7596 15.33451152 13631","mean_motion":15.33451152,"eccentricity":0.0002497,"inclination_deg":97.2884,"raan_deg":101.7828,"arg_perigee_deg":91.3933,"mean_anomaly_deg":268.7596,"bstar":0.00066468,"rev_number":1363,"period_min":93.905827917758,"perigee_km":463.81600814656,"apogee_km":467.23373288469,"semimajor_km":6843.6618705156,"source":"CELESTRAK","updated_at":"2026-09-20T09:00:44.286573Z"}}}